Philadelphia, PA

11:01 AM EDT on April 28, 2017 (GMT -0400)
Philadelphia International

Weather History for KPHL - March, 2013

Change the Weather History Date:

Thursday, March 14, 2013

  Actual Average Record
Temperature  
Mean Temperature 38 °F 43 °F  
Max Temperature 43 °F 52 °F 85 °F (1990)
Min Temperature 32 °F 34 °F 12 °F (1888)
Degree Days  
Heating Degree Days 27 22  
Month to date heating degree days 327 338  
Since 1 July heating degree days 3534 3820  
Cooling Degree Days 0 0  
Month to date cooling degree days 0 0  
Year to date cooling degree days 0 0  
Moisture  
Dew Point 13 °F    
Average Humidity 39    
Maximum Humidity 54    
Minimum Humidity 24    
Precipitation  
Precipitation T in 0.12 in 1.56 in (1956)
Month to date precipitation 1.05 1.56  
Year to date precipitation 6.51 7.24  
Snow  
Snow T in 0.10 in 4.70 in (1999)
Month to date snowfall 0.2 1.9  
Since 1 July snowfall 7.2 20.9  
Snow Depth 0.00 in    
Sea Level Pressure  
Sea Level Pressure 30.00 in    
Wind  
Wind Speed 17 mph (WNW)    
Max Wind Speed 30 mph    
Max Gust Speed 47 mph    
Visibility 10 miles    
Events Snow    
T = Trace of Precipitation, MM = Missing Value Source: NWS Daily Summary

Daily Weather History Graph

Daily Weather History Graph

Search for Another Location

Airport or City:

Trip Planner

Search our weather history database for the weather conditions in past years. The results will help you decide how hot, cold, wet, or windy it might be!

Date:

Astronomy

Mar. 14, 2013 Rise Set
Actual Time 7:13 AM EDT 7:07 PM EDT
Civil Twilight 6:46 AM EDT 7:34 PM EDT
Nautical Twilight 6:15 AM EDT 8:05 PM EDT
Astronomical Twilight 5:43 AM EDT 8:37 PM EDT
Moon 8:26 AM EDT (3/14) 10:20 PM EDT (3/14)
Length of Visible Light 12h 47m
Length of Day
11h 53m
Waxing Crescent, 9% of the Moon is Illuminated
Mar 14
Waxing Crescent
Mar 19
First Quarter
Mar 27
Full
Apr 3
Last Quarter
Apr 10
New

Hourly Weather History & Observations

Time (EDT) Temp. Windchill Dew Point Humidity Pressure Visibility Wind Dir Wind Speed Gust Speed Precip Events Conditions
12:54 AM 36.0 °F 26.0 °F 14.0 °F 41% 29.99 in 10.0 mi WNW 17.3 mph 28.8 mph N/A   Clear
1:54 AM 35.1 °F 25.5 °F 12.9 °F 40% 30.00 in 10.0 mi WNW 15.0 mph 24.2 mph N/A   Clear
2:54 AM 35.1 °F 25.9 °F 15.1 °F 44% 30.00 in 10.0 mi NW 13.8 mph 24.2 mph N/A   Overcast
3:54 AM 34.0 °F 26.0 °F 12.0 °F 40% 30.00 in 10.0 mi WNW 10.4 mph 19.6 mph N/A   Scattered Clouds
4:54 AM 33.1 °F 23.9 °F 12.9 °F 43% 29.99 in 10.0 mi West 12.7 mph - N/A   Clear
5:54 AM 32.0 °F 23.6 °F 17.1 °F 54% 29.99 in 10.0 mi WSW 10.4 mph - N/A   Mostly Cloudy
6:54 AM 33.1 °F 23.0 °F 19.0 °F 56% 30.01 in 10.0 mi WNW 15.0 mph 24.2 mph 0.00 in Snow Light Snow
7:44 AM 33.8 °F 23.9 °F 17.6 °F 52% 30.02 in 10.0 mi West 15.0 mph 21.9 mph 0.00 in   Mostly Cloudy
7:54 AM 33.1 °F 22.2 °F 17.1 °F 52% 30.02 in 10.0 mi West 17.3 mph 27.6 mph 0.00 in   Mostly Cloudy
8:54 AM 35.1 °F 23.8 °F 15.1 °F 44% 30.03 in 10.0 mi WNW 20.7 mph 25.3 mph 0.00 in   Mostly Cloudy
9:54 AM 36.0 °F 23.9 °F 12.0 °F 37% 30.03 in 10.0 mi WNW 25.3 mph 35.7 mph N/A   Mostly Cloudy
10:54 AM 37.9 °F 27.1 °F 10.9 °F 33% 30.02 in 10.0 mi WNW 23.0 mph 32.2 mph N/A   Mostly Cloudy
11:54 AM 39.0 °F 29.3 °F 10.0 °F 30% 30.01 in 10.0 mi NW 19.6 mph 29.9 mph N/A   Mostly Cloudy
12:54 PM 39.0 °F 29.3 °F 10.9 °F 32% 29.99 in 10.0 mi West 19.6 mph 29.9 mph N/A   Scattered Clouds
1:54 PM 39.9 °F 29.0 °F 12.0 °F 32% 29.97 in 10.0 mi West 26.5 mph 36.8 mph N/A   Mostly Cloudy
2:54 PM 41.0 °F 30.7 °F 12.0 °F 31% 29.95 in 10.0 mi West 25.3 mph 33.4 mph N/A   Mostly Cloudy
3:54 PM 42.1 °F 32.3 °F 10.0 °F 27% 29.95 in 10.0 mi WNW 24.2 mph 36.8 mph N/A   Mostly Cloudy
4:54 PM 42.1 °F 32.8 °F 10.0 °F 27% 29.95 in 10.0 mi NW 21.9 mph 31.1 mph N/A   Scattered Clouds
5:54 PM 42.1 °F 33.3 °F 9.0 °F 26% 29.96 in 10.0 mi NW 19.6 mph 25.3 mph N/A   Scattered Clouds
6:54 PM 41.0 °F 31.9 °F 10.0 °F 28% 29.97 in 10.0 mi West 19.6 mph 27.6 mph N/A   Partly Cloudy
7:54 PM 39.9 °F 31.8 °F 10.0 °F 29% 29.99 in 10.0 mi WNW 15.0 mph 24.2 mph N/A   Clear
8:54 PM 37.9 °F 30.9 °F 12.0 °F 35% 30.00 in 10.0 mi West 10.4 mph - N/A   Clear
9:54 PM 37.9 °F 30.5 °F 12.0 °F 35% 30.01 in 10.0 mi West 11.5 mph - N/A   Clear
10:54 PM 37.0 °F 28.1 °F 10.0 °F 33% 30.02 in 10.0 mi WNW 15.0 mph 21.9 mph N/A   Clear
11:54 PM 37.0 °F 30.4 °F 8.1 °F 30% 30.04 in 10.0 mi WNW 9.2 mph - N/A   Clear